Location: Rock Island IL
(41.5000°N, 90.5500°W)
Time: 12:23:22
(UTC-05:00)

Daily predictions for brighter satellites

Satellite Brightness Start Highest point End
(mag) Time Altitude Azimuth Time Altitude Azimuth Time Altitude Azimuth
Cosmos 2360 Rocket 2.4 18:26:20 10° NNW 18:32:01 79° WSW 18:37:40 10° SSE
Cosmos 1727 Rocket 4.0 18:27:27 10° N 18:33:50 76° E 18:40:09 10° SSE
Cosmos 1842 Rocket 3.6 18:29:26 10° S 18:33:53 84° E 18:38:21 10° N
Atlas Centaur 2 4.1 18:33:27 10° SW 18:35:10 12° S 18:37:00 10° SSE
Gbstr 26 Del rocket 3.6 18:31:05 10° NW 18:35:47 60° NNE 18:41:37 10° ESE
APEX 2.7 18:32:58 10° S 18:36:01 52° ESE 18:38:45 10° NE
CSL-04 Rocket 4.2 18:31:01 10° S 18:36:19 67° WSW 18:41:36 10° NNW
Cosmos 1048 Rocket 4.2 18:34:07 10° S 18:39:02 49° ESE 18:43:58 10° NNE
Aureole 2 4.3 18:36:40 10° NNW 18:39:52 84° ENE 18:43:32 10° SSE
ALOS 3.3 18:36:45 10° ESE 18:40:34 26° ENE 18:44:24 10° NNE
FENGYUN 3A 4.4 18:38:24 10° SE 18:43:02 30° ENE 18:47:41 10° N
Cosmos 1500 Rocket 3.6 18:39:32 10° N 18:43:54 86° W 18:48:12 10° S
CORIOLIS 4.3 18:39:09 10° SSE 18:44:33 87° WSW 18:50:01 10° NNW
Cosmos 1420 Rocket 4.0 18:40:04 10° NNW 18:45:24 79° ENE 18:50:40 10° SSE
Abrixas 1.7 18:43:46 10° WSW 18:45:51 65° NNW 18:47:49 11° NE
Cosmos 1400 Rocket 3.8 18:42:42 10° NNW 18:46:37 52° W 18:50:26 10° S
COSMOS 2428 2.7 18:44:00 10° NNW 18:49:41 65° ENE 18:55:19 10° SE
Cosmos 2219 3.3 18:46:33 10° S 18:52:09 58° ESE 18:57:47 10° NNE
Cosmos 2333 Rocket 2.8 18:46:57 10° N 18:52:17 37° ENE 18:57:36 10° SE
ERS-2 2.3 18:49:38 10° S 18:53:20 78° WSW 18:57:03 10° NNW
NOSS 0 Rocket 4.5 18:48:40 10° NNW 18:54:22 37° NE 19:00:00 10° ESE
Cosmos 2297 Rocket 3.5 18:53:35 10° SE 18:57:18 18° E 19:00:57 10° ENE
Cosmos 1726 2.6 18:54:44 10° SSE 18:58:09 37° E 19:01:35 10° NNE
Cosmos 2058 4.0 18:58:16 10° NNW 19:02:18 50° W 19:06:18 10° SSW
Sich 1 3.7 19:00:44 10° NNE 19:04:43 33° ENE 19:08:42 10° SE
Cosmos 44 3.4 19:01:48 10° SW 19:06:07 63° NW 19:10:26 10° NNE
MOS 1 4.3 19:00:44 10° SSE 19:06:23 81° ENE 19:12:07 10° NNW
NOAA 12 4.2 19:01:24 10° SE 19:06:31 52° ENE 19:11:41 10° N
Cosmos 2151 4.3 19:02:27 10° NNW 19:06:31 44° W 19:10:33 10° SSW
MONITOR-E 4.0 19:07:15 10° SSE 19:10:19 82° ENE 19:13:25 10° N
Thor Agena Rocket 4.2 19:07:23 10° NE 19:11:53 31° E 19:16:19 10° SSE
EO 1 Del DPAF 3.4 19:08:11 10° N 19:12:02 77° WNW 19:15:52 10° SSW
COSMO-SKYMED 1 2.5 19:09:19 10° NNE 19:13:41 87° E 19:18:02 10° SSW
METEOR-M 4.2 19:10:38 10° SSE 19:15:59 86° WSW 19:21:22 10° NNW
Cosmos 2219 Rocket 2.1 19:12:24 10° NNW 19:18:00 69° ENE 19:23:35 10° SSE
Resurs 01 Rocket 3.8 19:21:17 10° NE 19:21:17 10° NE 19:21:19 10° NE
CZ-4 R/B 3.5 19:17:51 10° SSW 19:21:36 32° W 19:25:20 10° NNW
Abrixas rocket 3.3 19:20:00 10° NW 19:22:58 30° NNE 19:23:56 25° NE
Cosmos 1805 Rocket 3.5 19:18:49 10° N 19:23:14 81° E 19:27:39 10° S
BREEZE-M DEB (TANK) 3.8 19:15:45 10° W 19:27:25 58° N 19:29:58 24° ENE
CZ-4C R/B 2.4 19:23:25 10° SW 19:28:35 68° NW 19:34:33 10° NNE
Aureole 2 Rocket 2.9 19:25:08 10° NNW 19:29:07 78° WSW 19:33:12 10° SSE
MINOTAUR R/B 4.0 19:27:03 10° SSW 19:29:39 84° ESE 19:30:29 39° NNE
Cosmos 1666 Rocket 3.4 19:28:30 10° N 19:32:49 64° E 19:37:06 10° SSE
Cosmos 1535 Rocket 4.4 19:26:52 10° S 19:32:58 81° E 19:39:06 10° N
Cosmos 2228 Rocket 3.8 19:29:53 10° SSE 19:33:52 31° E 19:34:23 30° ENE
YAOGAN 1 4.3 19:30:21 10° SSW 19:34:18 34° W 19:38:16 10° NNW
Cosmos 1328 Rocket 4.0 19:31:32 10° SSE 19:35:36 38° E 19:39:40 10° NNE
FREGAT/IRIS 4.2 19:37:52 23° NNE 19:37:52 23° NNE 19:39:16 10° N
Cosmos 1633 Rocket 3.0 19:32:10 10° N 19:36:34 58° E 19:40:55 10° SSE
DMSP B5D1-3 4.4 19:31:37 10° NNE 19:36:48 86° ESE 19:41:57 10° SSW
Meteor 2-2 Rocket 4.3 19:31:56 10° S 19:37:25 52° E 19:42:52 10° NNE
BREEZE-M R/B 2.4 19:36:20 10° SW 19:38:52 53° SE 19:39:12 50° ESE
Iridium 4 Rocket 4.1 19:33:50 10° S 19:39:29 72° W 19:45:25 10° N
Cosmos 1302 Rocket 4.5 19:36:58 10° N 19:41:49 37° ENE 19:42:54 34° E
PSLV R/B 3.3 19:44:18 10° WSW 19:47:13 57° S 19:47:13 57° S
Cosmos 2084 3.4 19:44:33 10° NW 19:48:19 67° WSW 19:50:20 26° SSE
Cosmos 494 Rocket 3.8 19:43:59 10° S 19:49:04 74° ESE 19:54:11 10° NNE
In-Cosmos 22 Rocket 4.2 19:48:11 10° N 19:53:59 81° E 19:59:49 10° SSE
SJ-6B 3.5 19:56:39 36° NNE 19:56:39 36° NNE 19:59:08 10° N
H-2A R/B 2.6 19:55:28 42° SSE 19:56:44 79° ENE 20:00:40 10° N
Cosmos 2237 Rocket 2.1 19:51:10 10° NNW 19:56:54 76° ENE 20:00:17 25° SSE
Cosmos 1934 Rocket 4.2 19:52:26 10° SSW 19:58:47 76° W 20:05:11 10° N
Lacrosse 5 rocket 3.8 19:58:34 10° N 20:00:00 11° NNE 20:00:02 11° NNE
Cosmos 1110 Rocket 4.1 19:56:02 10° NNW 20:01:20 75° WSW 20:06:35 10° SSE
Cosmos 2227 Rocket 2.1 19:58:02 10° SSW 20:03:41 81° ESE 20:08:05 17° NNE
MOS 1-B Rocket 4.0 20:03:12 42° ESE 20:04:40 52° ENE 20:10:45 10° N
Cosmos 1300 4.0 20:04:43 10° SSW 20:08:20 40° WNW 20:11:58 10° N
SL-16 R/B 2.7 20:05:04 10° N 20:09:56 41° NE 20:09:56 41° NE
USA 32 3.9 20:07:02 10° N 20:12:17 73° E 20:13:51 45° SSE
ATLAS 5 CENTAUR R/B 4.3 20:15:15 10° N 20:17:12 12° NNE 20:17:12 12° NNE
ALOS 4.0 20:13:40 10° SSW 20:17:51 33° W 20:22:05 10° NNW
Cosmos 1980 4.0 20:15:59 10° NNW 20:21:35 64° WSW 20:24:57 24° S
Envisat 4.2 20:28:03 30° N 20:28:03 30° N 20:30:42 10° N
Cosmos 1470 Rocket 4.2 20:26:55 10° NNW 20:30:26 52° NW 20:30:26 52° NW
Cosmos 2251 Rocket 3.8 20:26:26 10° SSW 20:31:41 65° WNW 20:34:46 25° N
Meteor 2-3 Rocket 3.7 20:29:15 10° N 20:35:02 85° W 20:35:42 70° S
Cosmos 2333 Rocket 3.8 20:31:23 10° NW 20:36:27 33° WSW 20:41:31 10° SSW
Hubble Space Telescope 3.6 20:35:46 10° SSW 20:35:51 10° SSW 20:35:51 10° SSW
Cosmos 2297 Rocket 2.5 20:35:11 10° SW 20:40:46 62° WNW 20:42:52 38° N
BREEZE-M DEB (TANK) 3.3 20:29:13 10° WNW 20:42:11 79° SW 20:42:21 78° SSW
USA 267 4.1 20:52:07 36° S 20:52:07 36° S 20:56:03 10° SSW
Cosmos 2082 4.4 20:46:47 10° SW 20:52:21 52° WNW 20:54:11 38° N
Resurs 01 Rocket 4.1 20:58:52 16° NNW 20:58:52 16° NNW 20:59:48 10° NNW
USA 234 4.5 21:26:41 32° N 21:26:41 32° N 21:30:47 10° NW
SL-16 R/B 4.4 21:49:34 10° NW 21:51:50 20° WNW 21:51:50 20° WNW
